HVDC transfer

From www.emi.ea.govt.nz provided by the Electricity Authority (New Zealand)
Run at: 20240505130652

Parameters
Date range,19 Sep 2020 - 19 Sep 2020
Time scale,Trading period
Show,Average flow (MW)

Period start,Period end,Trading period,Direction,Energy transfer (GWh),Peak flow (MW),Average flow (MW)
19/09/2020 00:00:00,19/09/2020 00:30:00,1,Northward at Haywards,0.028,55,55
19/09/2020 00:30:00,19/09/2020 01:00:00,2,Northward at Haywards,0.002,3,3
19/09/2020 01:00:00,19/09/2020 01:30:00,3,Northward at Haywards,0.001,2,2
19/09/2020 01:30:00,19/09/2020 02:00:00,4,Northward at Haywards,0.026,51,51
19/09/2020 02:00:00,19/09/2020 02:30:00,5,Northward at Haywards,0.025,49,49
19/09/2020 02:30:00,19/09/2020 03:00:00,6,Northward at Haywards,0.027,53,53
19/09/2020 03:00:00,19/09/2020 03:30:00,7,Northward at Haywards,0.033,65,65
19/09/2020 03:30:00,19/09/2020 04:00:00,8,Northward at Haywards,0.035,70,70
19/09/2020 04:00:00,19/09/2020 04:30:00,9,Northward at Haywards,0.031,62,62
19/09/2020 04:30:00,19/09/2020 05:00:00,10,Northward at Haywards,0.033,65,65
19/09/2020 05:00:00,19/09/2020 05:30:00,11,Northward at Haywards,0.025,49,49
19/09/2020 05:30:00,19/09/2020 06:00:00,12,Northward at Haywards,0.048,96,96
19/09/2020 06:00:00,19/09/2020 06:30:00,13,Northward at Haywards,0.092,183,183
19/09/2020 06:30:00,19/09/2020 07:00:00,14,Northward at Haywards,0.127,253,253
19/09/2020 07:00:00,19/09/2020 07:30:00,15,Northward at Haywards,0.166,331,331
19/09/2020 07:30:00,19/09/2020 08:00:00,16,Northward at Haywards,0.204,407,407
19/09/2020 08:00:00,19/09/2020 08:30:00,17,Northward at Haywards,0.220,439,439
19/09/2020 08:30:00,19/09/2020 09:00:00,18,Northward at Haywards,0.232,463,463
19/09/2020 09:00:00,19/09/2020 09:30:00,19,Northward at Haywards,0.229,457,457
19/09/2020 09:30:00,19/09/2020 10:00:00,20,Northward at Haywards,0.249,497,497
19/09/2020 10:00:00,19/09/2020 10:30:00,21,Northward at Haywards,0.254,507,507
19/09/2020 10:30:00,19/09/2020 11:00:00,22,Northward at Haywards,0.241,482,482
19/09/2020 11:00:00,19/09/2020 11:30:00,23,Northward at Haywards,0.228,456,456
19/09/2020 11:30:00,19/09/2020 12:00:00,24,Northward at Haywards,0.221,442,442
19/09/2020 12:00:00,19/09/2020 12:30:00,25,Northward at Haywards,0.199,397,397
19/09/2020 12:30:00,19/09/2020 13:00:00,26,Northward at Haywards,0.205,410,410
19/09/2020 13:00:00,19/09/2020 13:30:00,27,Northward at Haywards,0.190,379,379
19/09/2020 13:30:00,19/09/2020 14:00:00,28,Northward at Haywards,0.191,381,381
19/09/2020 14:00:00,19/09/2020 14:30:00,29,Northward at Haywards,0.185,370,370
19/09/2020 14:30:00,19/09/2020 15:00:00,30,Northward at Haywards,0.171,341,341
19/09/2020 15:00:00,19/09/2020 15:30:00,31,Northward at Haywards,0.191,381,381
19/09/2020 15:30:00,19/09/2020 16:00:00,32,Northward at Haywards,0.201,402,402
19/09/2020 16:00:00,19/09/2020 16:30:00,33,Northward at Haywards,0.198,396,396
19/09/2020 16:30:00,19/09/2020 17:00:00,34,Northward at Haywards,0.188,375,375
19/09/2020 17:00:00,19/09/2020 17:30:00,35,Northward at Haywards,0.207,413,413
19/09/2020 17:30:00,19/09/2020 18:00:00,36,Northward at Haywards,0.263,526,526
19/09/2020 18:00:00,19/09/2020 18:30:00,37,Northward at Haywards,0.274,548,548
19/09/2020 18:30:00,19/09/2020 19:00:00,38,Northward at Haywards,0.336,671,671
19/09/2020 19:00:00,19/09/2020 19:30:00,39,Northward at Haywards,0.324,648,648
19/09/2020 19:30:00,19/09/2020 20:00:00,40,Northward at Haywards,0.254,508,508
19/09/2020 20:00:00,19/09/2020 20:30:00,41,Northward at Haywards,0.233,466,466
19/09/2020 20:30:00,19/09/2020 21:00:00,42,Northward at Haywards,0.233,466,466
19/09/2020 21:00:00,19/09/2020 21:30:00,43,Northward at Haywards,0.284,568,568
19/09/2020 21:30:00,19/09/2020 22:00:00,44,Northward at Haywards,0.275,550,550
19/09/2020 22:00:00,19/09/2020 22:30:00,45,Northward at Haywards,0.272,543,543
19/09/2020 22:30:00,19/09/2020 23:00:00,46,Northward at Haywards,0.229,458,458
19/09/2020 23:00:00,19/09/2020 23:30:00,47,Northward at Haywards,0.223,446,446
19/09/2020 23:30:00,20/09/2020 00:00:00,48,Northward at Haywards,0.185,370,370
